Orange, MA

3:31 AM EST on December 06, 2019 (GMT -0500)
Orange Municipal

Weather History for KORE - October, 2019

Change the Weather History Date:

Saturday, October 5, 2019

  Actual Average Record
Temperature  
Mean Temperature 44 °F -  
Max Temperature 59 °F 62 °F 82 °F (2007)
Min Temperature 30 °F 37 °F 24 °F (1996)
Degree Days  
Heating Degree Days 22    
Moisture  
Dew Point 31 °F    
Average Humidity 66    
Maximum Humidity 89    
Minimum Humidity 31    
Precipitation  
Precipitation 0.00 in - - ()
Sea Level Pressure  
Sea Level Pressure 30.43 in    
Wind  
Wind Speed 3 mph ()    
Max Wind Speed 10 mph    
Max Gust Speed -    
Visibility 10.0 miles    
Events      
Averages and records for this station are not official NWS values.
T = Trace of Precipitation, MM = Missing Value Source: Averaged Metar Reports

Daily Weather History Graph

Daily Weather History Graph

Search for Another Location

Airport or City:

Astronomy

Oct. 05, 2019 Rise Set
Actual Time 6:50 AM EDT 6:24 PM EDT
Civil Twilight 6:22 AM EDT 6:52 PM EDT
Nautical Twilight 5:49 AM EDT 7:24 PM EDT
Astronomical Twilight 5:16 AM EDT 7:57 PM EDT
Moon 2:20 PM EDT (10/5) 11:37 PM EDT (10/5)
Length of Visible Light 12h 29m
Length of Day
11h 33m
Waxing Crescent, 50% of the Moon is Illuminated
Oct 5
Waxing Crescent
Oct 5
First Quarter
Oct 13
Full
Oct 21
Last Quarter
Oct 27
New

Hourly Weather History & Observations

Time (EDT) Temp. Windchill Dew Point Humidity Pressure Visibility Wind Dir Wind Speed Gust Speed Precip Events Conditions
12:52 AM 42.1 °F 37.1 °F 30.0 °F 62% 30.38 in 10.0 mi North 8.1 mph - N/A   Clear
1:52 AM 37.9 °F - 30.9 °F 76% 30.40 in 10.0 mi Calm Calm - N/A   Clear
2:52 AM 36.0 °F - 30.9 °F 82% 30.41 in 10.0 mi Calm Calm - N/A   Clear
3:52 AM 33.1 °F - 30.0 °F 89% 30.42 in 10.0 mi Calm Calm - N/A   Clear
4:52 AM 30.9 °F - 28.0 °F 89% 30.44 in 10.0 mi Calm Calm - N/A   Clear
5:52 AM 30.0 °F 26.5 °F 27.0 °F 88% 30.45 in 10.0 mi North 3.5 mph - N/A   Clear
6:52 AM 30.0 °F - 27.0 °F 88% 30.46 in 10.0 mi Calm Calm - N/A   Clear
7:52 AM 33.1 °F - 30.0 °F 89% 30.48 in 10.0 mi Calm Calm - N/A   Clear
8:52 AM 39.9 °F 37.8 °F 33.1 °F 77% 30.49 in 10.0 mi NW 3.5 mph - N/A   Clear
9:52 AM 46.9 °F - 32.0 °F 56% 30.49 in 10.0 mi NNW 10.4 mph - N/A   Clear
10:52 AM 51.1 °F - 32.0 °F 48% 30.48 in 10.0 mi North - - N/A   Clear
11:52 AM 53.1 °F - 30.9 °F 43% 30.46 in 10.0 mi North 10.4 mph - N/A   Clear
12:52 PM 55.0 °F - 28.9 °F 37% 30.44 in 10.0 mi NNW 3.5 mph - N/A   Clear
1:52 PM 57.0 °F - 28.0 °F 33% 30.43 in 10.0 mi NW 4.6 mph - N/A   Clear
2:52 PM 57.9 °F - 28.9 °F 33% 30.42 in 10.0 mi Variable 4.6 mph - N/A   Clear
3:52 PM 57.9 °F - 27.0 °F 31% 30.40 in 10.0 mi West 5.8 mph - N/A   Clear
4:52 PM 57.9 °F - 28.0 °F 32% 30.39 in 10.0 mi WNW 5.8 mph - N/A   Clear
5:52 PM 55.9 °F - 30.9 °F 39% 30.40 in 10.0 mi Calm Calm - N/A   Clear
6:52 PM 46.0 °F - 36.0 °F 68% 30.40 in 10.0 mi Calm Calm - N/A   Clear
7:52 PM 43.0 °F - 35.1 °F 74% 30.41 in 10.0 mi Calm Calm - N/A   Clear
8:52 PM 39.9 °F - 35.1 °F 83% 30.41 in 10.0 mi Calm Calm - N/A   Clear
9:52 PM 36.0 °F - 33.1 °F 89% 30.41 in 10.0 mi Calm Calm - N/A   Clear
10:52 PM 36.0 °F - 33.1 °F 89% 30.41 in 10.0 mi Calm Calm - N/A   Clear
11:52 PM 34.0 °F - 30.9 °F 89% 30.41 in 10.0 mi Calm Calm - N/A   Clear